KD5HIA Weather Reports


Display with metric or nautical units.
time (UTC)temp
F
wind
direction
speed
MPH
gust
MPH
rain 1hr
in
rain 24hr
in
rain mn
in
humidity
%
barometer
mb
20260906061516 79 0.0 0.0 0.00 0.00 0.00 67 1014.8
20260906060516 78 0.0 0.0 0.00 0.00 0.00 68 1014.8
20260906055516 79 0.0 1.0 0.00 0.00 0.00 66 1014.9
20260906054516 79 0.0 1.0 0.00 0.00 0.00 66 1014.5
20260906053516 79 180 1.0 2.0 0.00 0.00 0.00 65 1014.6
20260906052516 79 180 2.0 3.0 0.00 0.00 0.00 65 1014.6
20260906051516 80 158 2.0 2.0 0.00 0.00 0.00 64 1014.9
20260906050516 81 158 2.0 2.0 0.00 0.00 0.00 63 1014.9
20260906045516 81 180 1.0 2.0 0.00 0.00 0.00 63 1014.9
20260906044516 81 180 1.0 2.0 0.00 0.00 0.00 62 1014.9
20260906043516 81 180 1.0 2.0 0.00 0.00 0.00 63 1014.8
20260906042516 81 180 2.0 2.0 0.00 0.00 0.00 62 1014.8
20260906041516 82 180 2.0 3.0 0.00 0.00 0.00 61 1014.6
20260906040516 83 180 2.0 4.0 0.00 0.00 0.00 60 1014.6
20260906035516 83 158 3.0 5.0 0.00 0.00 0.00 59 1014.5
20260906034516 83 158 3.0 5.0 0.00 0.00 0.00 58 1014.3
20260906033516 84 158 4.0 6.0 0.00 0.00 0.00 57 1014.3
20260906032516 84 158 4.0 7.0 0.00 0.00 0.00 57 1014.1
20260906031516 85 158 4.0 6.0 0.00 0.00 0.00 56 1013.8
20260906030516 85 158 4.0 6.0 0.00 0.00 0.00 55 1013.5
20260906025519 86 158 4.0 6.0 0.00 0.00 0.00 54 1013.2
20260906024519 87 158 5.0 7.0 0.00 0.00 0.00 54 1013.0
20260906023520 87 158 5.0 10.0 0.00 0.00 0.00 53 1012.9
20260906022516 88 158 5.0 8.0 0.00 0.00 0.00 53 1012.7
20260906021516 88 135 5.0 8.0 0.00 0.00 0.00 52 1012.4
20260906020516 89 135 8.0 11.0 0.00 0.00 0.00 51 1012.4
20260906015516 89 135 5.0 9.0 0.00 0.00 0.00 50 1012.1
20260906014516 90 135 5.0 8.0 0.00 0.00 0.00 48 1011.8
20260906013516 90 135 4.0 8.0 0.00 0.00 0.00 46 1011.8
20260906012516 91 135 6.0 9.0 0.00 0.00 0.00 44 1011.7
20260906011516 91 113 4.0 7.0 0.00 0.00 0.00 43 1011.4
20260906010516 92 113 1.0 4.0 0.00 0.00 0.00 42 1011.5
20260906005516 93 135 7.0 10.0 0.00 0.00 0.00 41 1011.4
20260906004516 94 113 6.0 11.0 0.00 0.00 0.00 41 1011.6
20260906003516 94 90 3.0 4.0 0.00 0.00 0.00 41 1011.5
20260906002516 95 68 7.0 12.0 0.00 0.00 0.00 41 1011.5
20260906001516 95 90 4.0 11.0 0.00 0.00 0.00 41 1011.6
20260906000516 95 90 3.0 11.0 0.00 0.00 0.00 41 1011.5
20260905235516 96 90 4.0 10.0 0.00 0.00 0.00 39 1011.5
20260905234516 96 90 7.0 14.0 0.00 0.00 0.00 40 1011.5
20260905233516 96 90 6.0 14.0 0.00 0.00 0.00 38 1011.3
20260905232516 96 90 5.0 12.0 0.00 0.00 0.00 39 1011.3
20260905231516 97 90 4.0 7.0 0.00 0.00 0.00 38 1011.4
20260905230516 97 90 3.0 8.0 0.00 0.00 0.00 37 1011.4
20260905225516 97 90 7.0 11.0 0.00 0.00 0.00 38 1011.3
20260905224516 97 90 6.0 11.0 0.00 0.00 0.00 38 1011.2
20260905223516 98 113 8.0 14.0 0.00 0.00 0.00 38 1011.4
20260905222516 97 68 8.0 14.0 0.00 0.00 0.00 38 1011.3
20260905221516 98 90 6.0 11.0 0.00 0.00 0.00 37 1011.6
20260905220516 98 68 6.0 11.0 0.00 0.00 0.00 38 1011.7
20260905215516 98 113 4.0 9.0 0.00 0.00 0.00 37 1011.7
20260905214516 97 135 5.0 12.0 0.00 0.00 0.00 39 1011.8
20260905213516 98 68 5.0 10.0 0.00 0.00 0.00 39 1011.9
20260905212516 97 113 7.0 14.0 0.00 0.00 0.00 39 1011.9
20260905211516 98 68 4.0 10.0 0.00 0.00 0.00 39 1012.0
20260905210516 98 68 6.0 10.0 0.00 0.00 0.00 38 1012.3
20260905205516 98 45 3.0 7.0 0.00 0.00 0.00 38 1012.3
20260905204516 97 135 4.0 9.0 0.00 0.00 0.00 39 1012.4
20260905203516 98 68 5.0 11.0 0.00 0.00 0.00 38 1012.6
20260905202516 98 113 4.0 8.0 0.00 0.00 0.00 38 1012.9
20260905201516 98 135 2.0 5.0 0.00 0.00 0.00 39 1013.1
20260905200516 97 158 4.0 9.0 0.00 0.00 0.00 40 1013.3
20260905195516 96 113 3.0 7.0 0.00 0.00 0.00 40 1013.4
20260905194516 96 90 3.0 5.0 0.00 0.00 0.00 40 1013.5
20260905193516 96 158 4.0 9.0 0.00 0.00 0.00 42 1013.8
20260905192516 95 135 8.0 13.0 0.00 0.00 0.00 44 1013.9
20260905191516 96 135 3.0 7.0 0.00 0.00 0.00 42 1014.1
20260905190516 96 158 3.0 8.0 0.00 0.00 0.00 42 1014.1
20260905185516 96 68 5.0 13.0 0.00 0.00 0.00 44 1014.5
20260905184516 96 68 6.0 12.0 0.00 0.00 0.00 44 1014.5
20260905183516 93 68 1.0 3.0 0.00 0.00 0.00 48 1014.5
20260905182516 93 113 2.0 4.0 0.00 0.00 0.00 48 1014.7
20260905181516 95 90 4.0 11.0 0.00 0.00 0.00 47 1015.0
20260905180516 92 68 2.0 6.0 0.00 0.00 0.00 47 1014.9
20260905175516 93 135 3.0 8.0 0.00 0.00 0.00 47 1015.1
20260905174516 92 203 1.0 5.0 0.00 0.00 0.00 54 1015.2
20260905173516 90 203 2.0 5.0 0.00 0.00 0.00 55 1015.1
20260905172516 91 158 2.0 6.0 0.00 0.00 0.00 54 1015.2
20260905171516 91 158 2.0 7.0 0.00 0.00 0.00 54 1015.3
20260905170516 91 135 3.0 10.0 0.00 0.00 0.00 55 1015.4
20260905165516 90 203 4.0 10.0 0.00 0.00 0.00 56 1015.4
20260905164517 90 158 3.0 5.0 0.00 0.00 0.00 57 1015.4
20260905163517 89 158 3.0 6.0 0.00 0.00 0.00 61 1015.5
20260905162517 89 158 5.0 8.0 0.00 0.00 0.00 60 1015.5
20260905161517 87 158 3.0 8.0 0.00 0.00 0.00 63 1015.5
20260905160517 86 180 4.0 7.0 0.00 0.00 0.00 64 1015.6
20260905155517 86 158 4.0 8.0 0.00 0.00 0.00 66 1015.7
20260905154517 86 158 4.0 7.0 0.00 0.00 0.00 66 1015.7
20260905153517 84 158 1.0 4.0 0.00 0.00 0.00 68 1015.6
20260905152517 84 158 2.0 4.0 0.00 0.00 0.00 67 1015.7
20260905151517 83 180 1.0 5.0 0.00 0.00 0.00 70 1015.6
20260905150517 82 180 2.0 6.0 0.00 0.00 0.00 70 1015.8
20260905145517 81 225 2.0 5.0 0.00 0.00 0.00 70 1015.7
20260905144517 81 135 2.0 5.0 0.00 0.00 0.00 71 1015.8
20260905143517 80 180 1.0 3.0 0.00 0.00 0.00 72 1015.7
20260905142517 79 0.0 0.0 0.00 0.00 0.00 73 1015.6
20260905141520 78 0.0 2.0 0.00 0.00 0.00 74 1015.4
20260905140520 77 0.0 1.0 0.00 0.00 0.00 74 1015.3
20260905135520 77 0.0 0.0 0.00 0.00 0.00 74 1015.2
20260905134517 76 0.0 0.0 0.00 0.00 0.00 76 1015.1
20260905133517 75 0.0 0.0 0.00 0.00 0.00 77 1015.0
20260905132517 74 0.0 0.0 0.00 0.00 0.00 78 1014.7
20260905131517 74 0.0 0.0 0.00 0.00 0.00 79 1014.7
20260905130517 73 0.0 0.0 0.00 0.00 0.00 81 1014.6
20260905125517 72 0.0 0.0 0.00 0.00 0.00 82 1014.5
20260905124517 72 0.0 0.0 0.00 0.00 0.00 81 1014.4
20260905123517 72 0.0 2.0 0.00 0.00 0.00 82 1014.3
20260905122517 72 135 1.0 2.0 0.00 0.00 0.00 82 1014.1
20260905121517 72 158 1.0 3.0 0.00 0.00 0.00 82 1014.1
20260905120517 72 0.0 2.0 0.00 0.00 0.00 81 1014.1
20260905115517 72 0.0 1.0 0.00 0.00 0.00 81 1014.1
20260905114517 73 0.0 2.0 0.00 0.00 0.00 79 1014.3
20260905113517 73 0.0 2.0 0.00 0.00 0.00 79 1014.3
20260905112517 73 0.0 0.0 0.00 0.00 0.00 80 1014.4
20260905111517 74 0.0 0.0 0.00 0.00 0.00 79 1014.3
20260905110517 73 0.0 0.0 0.00 0.00 0.00 80 1014.3
20260905105517 73 0.0 0.0 0.00 0.00 0.00 79 1014.2
20260905104517 74 0.0 2.0 0.00 0.00 0.00 79 1014.3
20260905103517 73 0.0 0.0 0.00 0.00 0.00 79 1014.3
20260905102517 73 0.0 0.0 0.00 0.00 0.00 80 1014.3
20260905101517 74 0.0 0.0 0.00 0.00 0.00 78 1014.3
20260905100517 74 0.0 2.0 0.00 0.00 0.00 78 1014.2
20260905095517 73 113 2.0 3.0 0.00 0.00 0.00 79 1014.2
20260905094517 74 113 2.0 3.0 0.00 0.00 0.00 78 1014.1
20260905093517 74 113 2.0 3.0 0.00 0.00 0.00 78 1014.0
20260905092517 74 135 2.0 2.0 0.00 0.00 0.00 79 1014.1
20260905091517 74 158 2.0 3.0 0.00 0.00 0.00 78 1014.3
20260905090517 74 158 1.0 2.0 0.00 0.00 0.00 78 1014.2
20260905085517 74 158 2.0 3.0 0.00 0.00 0.00 77 1014.3
20260905084517 74 158 2.0 3.0 0.00 0.00 0.00 77 1014.7
20260905083517 74 158 2.0 4.0 0.00 0.00 0.00 77 1014.6
20260905082517 74 158 3.0 5.0 0.00 0.00 0.00 77 1014.6
20260905081517 75 135 3.0 4.0 0.00 0.00 0.00 76 1014.8
20260905080517 75 0.0 0.0 0.00 0.00 0.00 76 1014.9
20260905075517 75 0.0 0.0 0.00 0.00 0.00 77 1015.0
20260905074517 74 0.0 0.0 0.00 0.00 0.00 79 1015.0
20260905073517 74 0.0 0.0 0.00 0.00 0.00 79 1015.0
20260905072517 74 0.0 0.0 0.00 0.00 0.00 79 1015.0
20260905071517 74 0.0 0.0 0.00 0.00 0.00 79 1014.9
20260905070517 74 0.0 0.0 0.00 0.00 0.00 79 1014.9
20260905065517 75 0.0 0.0 0.00 0.00 0.00 78 1015.2
20260905064517 75 0.0 0.0 0.00 0.00 0.00 78 1015.0
20260905063517 74 0.0 0.0 0.00 0.00 0.00 80 1014.9
20260905062517 73 0.0 0.0 0.00 0.00 0.00 80 1014.8